DELTA 1 DEB, 7041

Orbit data source: Space-Track

DELTA 1 DEB, 7041 is space debris in SSO originally from a launch on Tue, 06 Nov 1973 UTC launched from the Air Force Western Test Range (AFWTR). Debris objects in space refer to the collection of defunct objects orbiting the Earth. Examples of debris include non-operational satellites, rocket bodies, and fragments generated from explosions, collisions, or faulty payload assembly.

Loading next visibility...
Identifier
7041, 1973-086AH
Orbit
SSO
Country
Flag of USUS
Related business
Manufacturer
Unknown
Mission
Spacecraft
Bus & Motor
Unknown
Mass
Unknown
Launch date (UTC)
1973-11-06 (53 years ago)
Launch vehicle
Unknown
Launch site
Air Force Western Test Range (AFWTR)
Object type
Payload
Rocket body
Debris
Shape & HBR
Unknown shape, 0.2 m
Radar Cross Section
Medium (>0.1 m² and <1 m²)

Expand to show TLE details & history
Last TLE update: 19 hours ago

TLE from 19 hours ago
0 DELTA 1 DEB
1 07041U 73086AH  26206.53843646  .00000482  00000-0  37812-2 0  9998
2 07041 101.5501 227.7951 0190080 144.3171  10.0923 12.37944489359349
Epoch: 2026-07-25T12:55Z
TLE epoch observation values (Epoch: 2026-07-25T12:55:20.910Z)
Latitude
24.68297°
Longitude
-83.92891°
Altitude
1,370.358 km
Speed
7.243 km/s
True Right ascension
03h 32m 37s
True Declination
24° 33' 47"
Sunlit
Object was in daylight at epoch
Visualization orbit readout
Latitude
Unknown
Longitude
Unknown
Altitude
Unknown
Speed
Unknown
Apparent Right ascension
Unknown
Apparent Declination
Unknown
Sunlit
N/A
Visualization observer readout
Local Sidereal Time
21:18:02
Azimuth
Unknown
Elevation
Unknown
Doppler factor
Unknown
Orbital elements
Apogee altitude
1,662.871 km
Perigee altitude
1,362.886 km
Semi-major axis
7,891.016 km
Eccentricity
0.01901
Inclination
101.5501°
RAAN
227.7951°
Arg. of periapsis
144.3171°
True anomaly
10.48312°
Mean anomaly
10.0923°
Eccentric anomaly
10.28678°
Mean motion
3.09631 °/min
Orbital period
116.27 mins
BSTAR
0.0037812
Loading maneuver chart data...
Computing Atmospheric mass density...
Loading historical data...
Loading historical data...
Loading historical data...
Loading historical data...
Loading historical data...
Loading historical data...
Loading historical data...

Documentation

Showing up to 5 results
|